Regional Weather Roundup
Issued by NWS

Home | Current Version | Previous Version | Text Only | Print | Product List | Glossary On
Versions: 1 2 3 4 5 6 7 8 9 10 11 12 13 14 15 16 17 18 19 20 21 22 23 24 25 26 27 28 29 30 31 32 33 34 35 36 37 38 39 40 41 42 43 44 45 46 47 48 49 50
000
ASCA44 KEWX 290620
RWRMX

LATIN AMERICA AND CARIBBEAN REGIONAL WEATHER ROUNDUP
NATIONAL WEATHER SERVICE AUSTIN/SAN ANTONIO TX
100 AM CDT SUN MAY 29 2016

NOTE: "FAIR" INDICATED FEW OR NO CLOUDS BELOW 12,000 FEET WITH NO
SIGNIFICANT WEATHER AND/OR OBSTRUCTIONS TO VISIBILITY.

BAJA CALIFORNIA

CITY           SKY/WX    TMP DP  RH WIND       PRES   REMARKS
LA PAZ           N/A    N/A N/A N/A MISG        N/A
MEXICALI       CLEAR     72  46  40 E7        29.79
S.J. DEL CABO  CLEAR     77  55  47 CALM      29.89S
TIJUANA        CLOUDY    59  54  82 NW5       30.00R FOG

NORTHWESTERN MEXICO

CITY           SKY/WX    TMP DP  RH WIND       PRES   REMARKS
HERMOSILLO     PTCLDY    72  37  28 CALM      29.90S

NORTHEASTERN MEXICO

CITY           SKY/WX    TMP DP  RH WIND       PRES   REMARKS
MONCLOVA         N/A    N/A N/A N/A MISG        N/A
MONTERREY      PTCLDY    72  63  73 NE6       29.90F
REYNOSA          N/A    N/A N/A N/A MISG        N/A
CD. VICTORIA     N/A    N/A N/A N/A MISG        N/A

WESTERN MEXICO

CITY           SKY/WX    TMP DP  RH WIND       PRES   REMARKS
AGUASCALIENTES   N/A    N/A N/A N/A MISG        N/A
COLIMA           N/A    N/A N/A N/A MISG        N/A
DEL BAJIO      MOCLDY    73  52  46 SE8       30.31R
GUADALAJARA    PTCLDY    77  50  38 W12       30.15
MAZATLAN       CLEAR     72  66  83 CALM      29.89R
P. VALLARTA    CLEAR     77  73  88 CALM      29.89S
URUAPAN          N/A    N/A N/A N/A MISG        N/A
ZACATECAS      MOCLDY    70  48  46 S5        30.30

CENTRAL MEXICO

CITY           SKY/WX    TMP DP  RH WIND       PRES   REMARKS
CUERNAVACA       N/A    N/A N/A N/A MISG        N/A
MEXICO CITY    TSTM      59  55  88 NW6       30.43R
MORELIA        CLOUDY    70  54  56 CALM      30.28
POZA RICA        N/A    N/A N/A N/A MISG        N/A
S. LUIS POTOSI PTCLDY    64  54  68 SE5       30.28S
TOLUCA         CLOUDY    59  54  82 CALM      30.48R

SOUTHERN MEXICO

CITY           SKY/WX    TMP DP  RH WIND       PRES   REMARKS
ACAPULCO       MOCLDY    81  77  89 W5        29.89F
B. DE HUATULCO   N/A    N/A N/A N/A MISG        N/A
P. ESCONDIDO     N/A    N/A N/A N/A MISG        N/A
VERACRUZ         N/A    N/A N/A N/A MISG        N/A

YUCATAN PENINSULA

CITY           SKY/WX    TMP DP  RH WIND       PRES   REMARKS
CAMPECHE         N/A    N/A N/A N/A MISG        N/A
CANCUN         PTCLDY    82  77  83 E6        30.00S HX  91
CHETUMAL         N/A    N/A N/A N/A MISG        N/A
CD. DEL CARMEN   N/A    N/A N/A N/A MISG        N/A
COZUMEL        PTCLDY    75  73  94 CALM      29.99S
MERIDA         CLEAR     82  72  69 E16       29.96S
MINATITLAN       N/A    N/A N/A N/A MISG        N/A
TAPACHULA      CLOUDY    81  77  89 CALM      29.87F

CENTRAL AMERICA

CITY           SKY/WX    TMP DP  RH WIND       PRES   REMARKS
MANAGUA        PTCLDY    81  73  78 E5        29.89S

CARIBBEAN

CITY           SKY/WX    TMP DP  RH WIND       PRES   REMARKS
ARUBA          PTCLDY    82  77  83 E20       29.89S HX  91
CURACAO        PTCLDY    82  79  89 E15       29.92S HX  93
KINGSTON       PTCLDY    82  73  74 NW3       29.94F
NASSAU         PTCLDY    79  75  89 CALM      30.05F
SAN JUAN       PTCLDY    79  75  89 E5        30.00F
SANTO DOMINGO  MOCLDY   N/A N/A N/A E5          N/A
ST. CROIX      LGT RAIN  75  72  88 S5        30.02  FOG
ST. MAARTEN    PTCLDY    81  75  83 E7        30.00S
ST. THOMAS     CLEAR     82  75  78 E7        30.01S

$$




USA.gov is the U.S. government's official web portal to all federal, state and local government web resources and services.